Tracking 29892 objects as of 21-Nov-2024
HD Live streaming from Space Station
objects crossing your sky now

STARLINK-5680

Track STARLINK-5680 now!
10-day predictions
STARLINK-5680 is classified as:


NORAD ID: 55455
Int'l Code: 2023-015G
Perigee: 564.4 km
Apogee: 567.8 km
Inclination: 43.0 °
Period: 95.8 minutes
Semi major axis: 6937 km
RCS: Unknown
Launch date: February 2, 2023
Source: United States (US)
Launch site: AIR FORCE EASTERN TEST RANGE (AFETR)
Your satellite tracking list
Your tracking list is empty




NASA's NSSDC Master Catalog

Two Line Element Set (TLE):
1 55455U 23015G   24326.19473870  .00002944  00000-0  23272-3 0  9999
2 55455  43.0038  19.2136 0002391  51.0268 309.0787 15.02574263 99527
Source of the keplerian elements: AFSPC